Lawrenceville, IL

2:46 AM CDT on September 23, 2017 (GMT -0500)
Lawrenceville-Vincennes International

Weather History for KLWV - October, 2012

Change the Weather History Date:

Sunday, October 21, 2012

  Actual Average Record
Temperature  
Mean Temperature 59 °F 56 °F  
Max Temperature 75 °F 68 °F 82 °F (2007)
Min Temperature 43 °F 44 °F 30 °F (1991)
Degree Days  
Heating Degree Days 6 10  
Month to date heating degree days 207 146  
Since 1 July heating degree days 272 185  
Cooling Degree Days 0 1  
Month to date cooling degree days 3 31  
Year to date cooling degree days 1695 1385  
Growing Degree Days 9 (Base 50)    
Moisture  
Dew Point 49 °F    
Average Humidity 71    
Maximum Humidity 96    
Minimum Humidity 46    
Precipitation  
Precipitation T in 0.14 in 2.26 in (1983)
Month to date precipitation 2.86 2.87  
Year to date precipitation 26.53 35.41  
Sea Level Pressure  
Sea Level Pressure 30.02 in    
Wind  
Wind Speed 9 mph (SE)    
Max Wind Speed 18 mph    
Max Gust Speed 22 mph    
Visibility 8 miles    
Events Rain    
T = Trace of Precipitation, MM = Missing Value Source: NWS Daily Summary

Daily Weather History Graph

Daily Weather History Graph

Search for Another Location

Airport or City:

Trip Planner

Search our weather history database for the weather conditions in past years. The results will help you decide how hot, cold, wet, or windy it might be!

Date:

Astronomy

Oct. 21, 2012 Rise Set
Actual Time 7:06 AM CDT 6:03 PM CDT
Civil Twilight 6:39 AM CDT 6:30 PM CDT
Nautical Twilight 6:08 AM CDT 7:01 PM CDT
Astronomical Twilight 5:37 AM CDT 7:31 PM CDT
Moon 1:25 PM CDT (10/21) 11:58 PM CDT (10/21)
Length of Visible Light 11h 50m
Length of Day
10h 56m
Waxing Crescent, 45% of the Moon is Illuminated
Oct 21
Waxing Crescent
Oct 21
First Quarter
Oct 29
Full
Nov 6
Last Quarter
Nov 13
New

Hourly Weather History & Observations

Time (CDT) Temp. Windchill Dew Point Humidity Pressure Visibility Wind Dir Wind Speed Gust Speed Precip Events Conditions
12:53 AM 45.0 °F 43.5 °F 41.0 °F 86% 30.00 in 5.0 mi South 3.5 mph - 0.01 in   Clear
1:53 AM 44.1 °F 42.5 °F 41.0 °F 89% 30.00 in 5.0 mi ESE 3.5 mph - N/A   Clear
2:53 AM 44.1 °F 42.5 °F 42.1 °F 93% 30.02 in 5.0 mi East 3.5 mph - N/A   Clear
3:53 AM 43.0 °F 39.5 °F 41.0 °F 93% 30.03 in 5.0 mi East 5.8 mph - N/A   Clear
4:53 AM 44.1 °F 40.1 °F 41.0 °F 89% 30.03 in 5.0 mi East 6.9 mph - N/A   Clear
5:53 AM 43.0 °F 39.5 °F 41.0 °F 93% 30.03 in 4.0 mi East 5.8 mph - N/A   Clear
6:53 AM 43.0 °F 38.8 °F 41.0 °F 93% 30.04 in 5.0 mi East 6.9 mph - N/A   Clear
7:53 AM 46.9 °F - 44.1 °F 90% 30.05 in 4.0 mi SE 6.9 mph - N/A   Clear
8:53 AM 53.1 °F - 46.0 °F 77% 30.05 in 7.0 mi SSE 10.4 mph - N/A   Clear
9:53 AM 57.9 °F - 48.0 °F 70% 30.06 in 9.0 mi SSE 11.5 mph - N/A   Clear
10:53 AM 63.0 °F - 48.9 °F 60% 30.05 in 10.0 mi SSE 11.5 mph 17.3 mph N/A   Clear
11:53 AM 68.0 °F - 48.9 °F 50% 30.04 in 10.0 mi South 15.0 mph 21.9 mph N/A   Clear
12:53 PM 70.0 °F - 50.0 °F 49% 30.02 in 10.0 mi South 13.8 mph 19.6 mph N/A   Clear
1:53 PM 73.0 °F - 51.1 °F 46% 30.00 in 10.0 mi South 17.3 mph - N/A   Clear
2:53 PM 73.9 °F - 51.1 °F 45% 29.99 in 10.0 mi South 11.5 mph - N/A   Clear
3:53 PM 75.0 °F - 53.1 °F 46% 29.98 in 10.0 mi South 13.8 mph - N/A   Clear
4:53 PM 73.9 °F - 53.1 °F 48% 29.98 in 10.0 mi South 11.5 mph - N/A   Clear
5:53 PM 68.0 °F - 55.0 °F 63% 29.99 in 10.0 mi SE 8.1 mph - N/A   Scattered Clouds
6:53 PM 66.9 °F - 55.0 °F 66% 29.99 in 10.0 mi SE 6.9 mph - N/A   Overcast
7:53 PM 66.9 °F - 54.0 °F 63% 30.00 in 10.0 mi SE 8.1 mph - N/A   Overcast
8:53 PM 66.0 °F - 55.9 °F 70% 30.01 in 10.0 mi East 3.5 mph - 0.00 in Rain Light Rain
9:53 PM 64.9 °F - 55.0 °F 70% 30.02 in 10.0 mi East 5.8 mph - N/A   Overcast
10:53 PM 64.9 °F - 55.0 °F 70% 30.02 in 10.0 mi SE 8.1 mph - N/A   Overcast
11:53 PM 66.0 °F - 54.0 °F 65% 30.02 in 10.0 mi SSE 9.2 mph - N/A   Overcast